Tracking 17739 objects as of 26-June-2016
HD Live streaming from Space Station
objects crossing your sky now

ARIANE 44LP DEB

Track ARIANE 44LP DEB now!
10-day predictions


NORAD ID: 27662
Int'l Code: 1991-015N
Perigee: 442.2 km
Apogee: 24,059.1 km
Inclination: 6.0 °
Period: 421.5 minutes
Semi major axis: 18621 km
RCS: 0.2322 m2 (medium)
Launch date: March 2, 1991
Source: France (FR)
Launch site: FRENCH GUIANA (FRGUI)

Note: This is SATELLITE DEBRIS
Your satellite tracking list
Your tracking list is empty





NASA's NSSDC Master Catalog

Two Line Element Set (TLE):
1 27662U 91015N   16173.33740186  .00000061  00000-0  40491-3 0  9997
2 27662   6.0378  41.8107 6341232 272.7707  21.1642  3.41645141200189
Source of the keplerian elements: AFSPC

N2YO: 1122